FW5890 Weather Reports


Display with metric or nautical units.
time (UTC)temp
F
wind
direction
speed
MPH
gust
MPH
rain 1hr
in
rain 24hr
in
rain mn
in
humidity
%
barometer
mb
20260506095546 33 360 0.0 2.0 0.00 0.00 0.00 75 1015.5
20260506095106 33 360 0.0 2.0 0.00 0.00 0.00 76 1015.5
20260506094521 33 360 0.0 0.0 0.00 0.00 0.00 75 1015.5
20260506094059 33 360 0.0 1.0 0.00 0.00 0.00 75 1015.5
20260506093511 33 360 0.0 1.0 0.00 0.00 0.00 75 1015.4
20260506093052 33 360 0.0 1.0 0.00 0.00 0.00 75 1015.4
20260506092701 33 360 0.0 0.0 0.00 0.00 0.00 74 1015.3
20260506092003 33 360 0.0 1.0 0.00 0.00 0.00 74 1015.3
20260506091546 33 360 0.0 1.0 0.00 0.00 0.00 74 1015.4
20260506091102 33 360 0.0 0.0 0.00 0.00 0.00 73 1015.4
20260506090536 33 360 0.0 0.0 0.00 0.00 0.00 72 1015.5
20260506090001 33 360 0.0 0.0 0.00 0.00 0.00 72 1015.5
20260506085545 33 360 0.0 0.0 0.00 0.00 0.00 71 1015.5
20260506085004 33 360 0.0 0.0 0.00 0.00 0.00 71 1015.3
20260506084524 33 360 0.0 0.0 0.00 0.00 0.00 71 1015.2
20260506084045 33 360 0.0 0.0 0.00 0.00 0.00 71 1015.1
20260506083605 33 360 0.0 0.0 0.00 0.00 0.00 71 1015.0
20260506083026 34 360 0.0 0.0 0.00 0.00 0.00 72 1015.0
20260506082515 34 360 0.0 1.0 0.00 0.00 0.00 71 1015.0
20260506082054 34 360 0.0 1.0 0.00 0.00 0.00 70 1015.0
20260506081507 34 360 0.0 1.0 0.00 0.00 0.00 70 1015.0
20260506081031 34 360 0.0 2.0 0.00 0.00 0.00 70 1015.1
20260506080502 34 360 0.0 2.0 0.00 0.00 0.00 69 1015.2
20260506073020 35 360 0.0 1.0 0.00 0.00 0.00 67 1014.8
20260506072538 35 360 0.0 1.0 0.00 0.00 0.00 67 1014.8
20260506072058 35 360 0.0 2.0 0.00 0.00 0.00 66 1014.7
20260506071534 35 360 0.0 2.0 0.00 0.00 0.00 66 1014.7
20260506071007 35 360 0.0 2.0 0.00 0.00 0.00 66 1014.7
20260506070553 36 360 0.0 2.0 0.00 0.00 0.00 66 1014.6
20260506070158 36 360 0.0 2.0 0.00 0.00 0.00 66 1014.7
20260506062016 37 360 0.0 3.0 0.00 0.00 0.00 62 1014.6
20260506061555 37 360 0.0 3.0 0.00 0.00 0.00 62 1014.6
20260506061010 37 360 0.0 3.0 0.00 0.00 0.00 62 1014.7
20260506060530 38 360 0.0 3.0 0.00 0.00 0.00 62 1014.7
20260506060105 38 360 0.0 3.0 0.00 0.00 0.00 62 1014.7
20260506051029 39 360 0.0 2.0 0.00 0.00 0.00 62 1014.3
20260506050506 39 360 0.0 2.0 0.00 0.00 0.00 61 1014.1
20260506045035 39 360 0.0 2.0 0.00 0.00 0.00 59 1014.0
20260506044506 39 360 0.0 5.0 0.00 0.00 0.00 60 1014.0
20260506044018 40 360 0.0 5.0 0.00 0.00 0.00 60 1014.1
20260506043539 40 360 0.0 3.0 0.00 0.00 0.00 60 1014.0
20260506043004 40 360 0.0 3.0 0.00 0.00 0.00 61 1014.0
20260506042538 40 360 0.0 2.0 0.00 0.00 0.00 60 1014.0
20260506042034 40 360 0.0 5.0 0.00 0.00 0.00 60 1014.0
20260506041509 40 360 0.0 5.0 0.00 0.00 0.00 59 1014.0
20260506041058 41 360 0.0 3.0 0.00 0.00 0.00 60 1013.9
20260506040534 41 360 0.0 5.0 0.00 0.00 0.00 59 1013.9
20260506040014 41 360 0.0 4.0 0.00 0.00 0.00 59 1013.9
20260506035536 41 360 1.0 4.0 0.00 0.00 0.00 60 1013.9
20260506035102 41 360 1.0 4.0 0.00 0.00 0.00 60 1013.9
20260506034539 41 360 0.0 6.0 0.00 0.00 0.00 60 1013.9
20260506034006 41 360 1.0 6.0 0.00 0.00 0.00 60 1013.7
20260506033550 41 360 0.0 2.0 0.00 0.00 0.00 60 1013.7
20260506033008 42 360 0.0 4.0 0.00 0.00 0.00 60 1013.7
20260506032536 42 360 0.0 4.0 0.00 0.00 0.00 59 1013.6
20260506032109 42 360 0.0 3.0 0.00 0.00 0.00 59 1013.6
20260506031549 42 360 0.0 2.0 0.00 0.00 0.00 59 1013.6
20260506031038 42 360 0.0 2.0 0.00 0.00 0.00 58 1013.6
20260506030506 43 360 0.0 4.0 0.00 0.00 0.00 57 1013.5
20260506030036 43 360 0.0 4.0 0.00 0.00 0.00 57 1013.6
20260506025513 43 360 0.0 4.0 0.00 0.00 0.00 56 1013.5
20260506025058 43 360 0.0 3.0 0.00 0.00 0.00 56 1013.4
20260506024537 43 360 0.0 6.0 0.00 0.00 0.00 55 1013.3
20260506024024 43 360 1.0 6.0 0.00 0.00 0.00 55 1013.2
20260506023501 43 360 1.0 5.0 0.00 0.00 0.00 55 1013.1
20260506023031 43 360 1.0 4.0 0.00 0.00 0.00 54 1012.9
20260506022506 43 360 1.0 4.0 0.00 0.00 0.00 53 1012.9
20260506022030 44 360 1.0 4.0 0.00 0.00 0.00 53 1012.9
20260506021517 44 360 1.0 3.0 0.00 0.00 0.00 53 1012.8
20260506021101 44 360 1.0 3.0 0.00 0.00 0.00 53 1012.8
20260506020538 44 360 0.0 3.0 0.00 0.00 0.00 53 1012.7
20260506020016 44 360 0.0 3.0 0.00 0.00 0.00 53 1012.5
20260506015502 44 360 1.0 3.0 0.00 0.00 0.00 52 1012.4
20260506015035 44 360 0.0 3.0 0.00 0.00 0.00 51 1012.3
20260506014557 45 360 0.0 3.0 0.00 0.00 0.00 52 1012.3
20260506014031 45 360 1.0 3.0 0.00 0.00 0.00 52 1012.3
20260506013518 45 360 0.0 4.0 0.00 0.00 0.00 50 1012.2
20260506013008 45 360 1.0 6.0 0.00 0.00 0.00 49 1012.1
20260506012549 46 360 1.0 9.0 0.00 0.00 0.00 49 1012.1
20260506012031 46 360 3.0 9.0 0.00 0.00 0.00 49 1012.0
20260506011526 46 360 2.0 9.0 0.00 0.00 0.00 49 1011.9
20260506011042 46 360 2.0 9.0 0.00 0.00 0.00 48 1011.8
20260506010505 47 360 1.0 6.0 0.00 0.00 0.00 49 1011.8
20260506010103 47 360 2.0 8.0 0.00 0.00 0.00 48 1011.7
20260506005516 47 360 0.0 6.0 0.00 0.00 0.00 48 1011.7
20260506005052 47 360 2.0 6.0 0.00 0.00 0.00 48 1011.7
20260506004526 47 360 1.0 9.0 0.00 0.00 0.00 48 1011.7
20260506004101 47 360 2.0 9.0 0.00 0.00 0.00 49 1011.7
20260506004001 47 360 2.0 9.0 0.00 0.00 0.00 49 1011.7
20260506003534 47 360 2.0 6.0 0.00 0.00 0.00 49 1011.6
20260506003105 47 360 2.0 4.0 0.00 0.00 0.00 49 1011.6
20260506002537 48 360 1.0 8.0 0.00 0.00 0.00 48 1011.5
20260506002010 48 360 2.0 8.0 0.00 0.00 0.00 48 1011.4
20260506001502 48 360 2.0 11.0 0.00 0.00 0.00 47 1011.3
20260506001049 48 360 1.0 11.0 0.00 0.00 0.00 47 1011.3
20260506000609 48 360 3.0 10.0 0.00 0.00 0.00 47 1011.2
20260506000031 48 360 2.0 5.0 0.00 0.00 0.00 47 1011.3
20260505235554 48 360 2.0 8.0 0.00 0.00 0.00 46 1011.3
20260505235014 49 360 2.0 8.0 0.00 0.00 0.00 45 1011.2
20260505234601 49 321 3.0 10.0 0.00 0.00 0.00 45 1011.1
20260505234004 49 311 3.0 10.0 0.00 0.00 0.00 44 1011.1
20260505233525 49 313 2.0 5.0 0.00 0.00 0.00 45 1011.0
20260505233106 49 292 2.0 9.0 0.00 0.00 0.00 47 1011.0
20260505232542 49 311 4.0 9.0 0.00 0.00 0.00 47 1011.0
20260505232059 49 350 4.0 9.0 0.00 0.00 0.00 46 1011.1
20260505231516 49 297 4.0 9.0 0.00 0.00 0.00 45 1011.1
20260505231052 49 332 2.0 10.0 0.00 0.00 0.00 45 1011.2
20260505230502 49 298 2.0 8.0 0.00 0.00 0.00 46 1011.2
20260505230038 49 327 2.0 6.0 0.00 0.00 0.00 46 1011.2
20260505225543 50 270 1.0 8.0 0.00 0.00 0.00 47 1011.2
20260505225103 50 284 2.0 8.0 0.00 0.00 0.00 45 1011.2
20260505224545 50 328 3.0 9.0 0.00 0.00 0.00 45 1011.1
20260505224059 50 254 1.0 9.0 0.00 0.00 0.00 49 1011.1
20260505223512 49 228 2.0 14.0 0.00 0.00 0.00 47 1011.1
20260505223051 49 331 4.0 14.0 0.00 0.00 0.00 46 1011.0
20260505222518 49 322 1.0 10.0 0.00 0.00 0.00 47 1011.0
20260505222049 49 286 2.0 11.0 0.00 0.00 0.00 47 1010.9
20260505221550 49 22 5.0 11.0 0.00 0.00 0.00 45 1011.0
20260505221102 50 92 3.0 10.0 0.00 0.00 0.00 45 1011.0
20260505220512 50 292 2.0 11.0 0.00 0.00 0.00 46 1010.9
20260505220035 50 331 3.0 12.0 0.00 0.00 0.00 45 1010.9
20260505215534 50 317 4.0 12.0 0.00 0.00 0.00 46 1011.0
20260505215052 50 54 3.0 9.0 0.00 0.00 0.00 45 1011.0
20260505214515 51 334 3.0 12.0 0.00 0.00 0.00 43 1011.1
20260505214045 50 360 3.0 12.0 0.00 0.00 0.00 46 1011.1
20260505213605 50 337 2.0 9.0 0.00 0.00 0.00 45 1011.2
20260505213030 51 301 2.0 9.0 0.00 0.00 0.00 44 1011.2
20260505212559 51 275 3.0 10.0 0.00 0.00 0.00 46 1011.1
20260505212010 50 319 2.0 10.0 0.00 0.00 0.00 45 1011.1
20260505211609 50 273 2.0 9.0 0.00 0.00 0.00 46 1011.1
20260505211003 50 310 1.0 8.0 0.00 0.00 0.00 47 1011.2
20260505210523 49 275 2.0 10.0 0.00 0.00 0.00 47 1011.2
20260505210045 49 351 2.0 10.0 0.00 0.00 0.00 45 1011.2
20260505205521 49 327 3.0 10.0 0.00 0.00 0.00 45 1011.3
20260505205059 49 243 2.0 8.0 0.00 0.00 0.00 47 1011.2
20260505204537 49 299 1.0 8.0 0.00 0.00 0.00 47 1011.2
20260505204052 49 321 1.0 8.0 0.00 0.00 0.00 45 1011.2
20260505203502 49 329 4.0 10.0 0.00 0.00 0.00 45 1011.3
20260505203047 49 349 2.0 10.0 0.00 0.00 0.00 47 1011.3
20260505202607 49 308 3.0 10.0 0.00 0.00 0.00 46 1011.3
20260505202017 48 331 3.0 10.0 0.00 0.00 0.00 46 1011.4
20260505201542 49 336 3.0 9.0 0.00 0.00 0.00 46 1011.3
20260505201035 49 317 1.0 11.0 0.00 0.00 0.00 46 1011.4
20260505200555 49 333 4.0 11.0 0.00 0.00 0.00 47 1011.4
20260505200033 49 329 3.0 8.0 0.00 0.00 0.00 47 1011.4
20260505195548 50 302 3.0 8.0 0.00 0.00 0.00 47 1011.4
20260505195004 50 313 2.0 9.0 0.00 0.00 0.00 46 1011.4
20260505194543 50 111 1.0 9.0 0.00 0.00 0.00 51 1011.4
20260505194021 49 319 2.0 8.0 0.00 0.00 0.00 50 1011.4
20260505193601 48 24 4.0 9.0 0.00 0.00 0.00 48 1011.4
20260505193011 48 323 3.0 9.0 0.00 0.00 0.00 48 1011.4
20260505192534 49 331 3.0 9.0 0.00 0.00 0.00 47 1011.4
20260505192005 49 313 3.0 14.0 0.00 0.00 0.00 48 1011.4
20260505191532 49 324 4.0 14.0 0.00 0.00 0.00 46 1011.4
20260505191048 49 315 2.0 10.0 0.00 0.00 0.00 46 1011.3
20260505190518 49 343 5.0 11.0 0.00 0.00 0.00 46 1011.3
20260505190039 50 326 6.0 14.0 0.00 0.00 0.00 46 1011.4
20260505185558 49 355 5.0 14.0 0.00 0.00 0.00 47 1011.4
20260505185024 48 321 3.0 8.0 0.00 0.00 0.00 47 1011.4
20260505184555 48 325 3.0 8.0 0.00 0.00 0.00 47 1011.5
20260505184022 48 179 2.0 11.0 0.00 0.00 0.00 46 1011.4
20260505183540 49 317 3.0 11.0 0.00 0.00 0.00 45 1011.4
20260505183101 49 301 4.0 11.0 0.00 0.00 0.00 45 1011.4
20260505182539 49 321 5.0 10.0 0.00 0.00 0.00 46 1011.4
20260505182057 49 340 4.0 9.0 0.00 0.00 0.00 44 1011.4
20260505181509 50 24 2.0 9.0 0.00 0.00 0.00 46 1011.4
20260505181055 49 248 3.0 10.0 0.00 0.00 0.00 47 1011.4
20260505180506 49 340 3.0 9.0 0.00 0.00 0.00 46 1011.2
20260505180027 49 329 3.0 9.0 0.00 0.00 0.00 45 1011.3
20260505175502 50 327 3.0 11.0 0.00 0.00 0.00 44 1011.3
20260505175021 50 298 0.0 11.0 0.00 0.00 0.00 45 1011.4
20260505174600 50 299 3.0 8.0 0.00 0.00 0.00 45 1011.4
20260505174502 50 66 2.0 9.0 0.00 0.00 0.00 49 1011.3
20260505174019 48 130 3.0 10.0 0.00 0.00 0.00 46 1011.3
20260505173602 48 326 4.0 10.0 0.00 0.00 0.00 44 1011.3
20260505173019 48 317 3.0 10.0 0.00 0.00 0.00 45 1011.5
20260505172538 48 256 2.0 8.0 0.00 0.00 0.00 47 1011.4
20260505172012 47 319 2.0 8.0 0.00 0.00 0.00 46 1011.5
20260505171543 48 331 2.0 11.0 0.00 0.00 0.00 45 1011.5
20260505171105 48 334 3.0 11.0 0.00 0.00 0.00 45 1011.5
20260505170526 48 301 2.0 5.0 0.00 0.00 0.00 47 1011.5
20260505170106 48 225 1.0 4.0 0.00 0.00 0.00 47 1011.5
20260505165535 47 120 1.0 4.0 0.00 0.00 0.00 48 1011.5
20260505165008 47 266 1.0 9.0 0.00 0.00 0.00 46 1011.5
20260505164537 47 296 2.0 10.0 0.00 0.00 0.00 45 1011.5
20260505164030 48 329 3.0 10.0 0.00 0.00 0.00 46 1011.5
20260505163513 47 115 2.0 10.0 0.00 0.00 0.00 47 1011.4
20260505163033 47 333 3.0 9.0 0.00 0.00 0.00 45 1011.5
20260505162553 47 336 0.0 7.0 0.00 0.00 0.00 50 1011.5
20260505162031 47 133 2.0 9.0 0.00 0.00 0.00 45 1011.5
20260505161513 48 311 1.0 6.0 0.00 0.00 0.00 45 1011.6
20260505161037 48 308 1.0 5.0 0.00 0.00 0.00 44 1011.5
20260505160531 48 219 1.0 6.0 0.00 0.00 0.00 45 1011.5
20260505153106 48 325 1.0 6.0 0.00 0.00 0.00 49 1011.3
20260505152521 47 128 2.0 8.0 0.00 0.00 0.00 48 1011.4
20260505152001 47 148 2.0 8.0 0.00 0.00 0.00 48 1011.4
20260505151527 47 298 1.0 8.0 0.00 0.00 0.00 50 1011.3
20260505151010 46 109 2.0 10.0 0.00 0.00 0.00 51 1011.3
20260505150549 46 344 2.0 10.0 0.00 0.00 0.00 52 1011.2
20260505140507 45 284 1.0 4.0 0.00 0.00 0.00 51 1010.8
20260505125007 42 225 1.0 7.0 0.00 0.00 0.00 55 1010.3
20260505124556 42 254 1.0 7.0 0.00 0.00 0.00 54 1010.3
20260505124035 42 142 1.0 6.0 0.00 0.00 0.00 56 1010.2
20260505123520 41 142 1.0 6.0 0.00 0.00 0.00 56 1010.0
20260505123004 41 360 0.0 4.0 0.00 0.00 0.00 59 1009.9
20260505122526 41 194 0.0 4.0 0.00 0.00 0.00 59 1009.8
20260505122103 40 360 1.0 3.0 0.00 0.00 0.00 61 1009.8
20260505121544 40 360 1.0 3.0 0.00 0.00 0.00 62 1009.7
20260505121012 39 360 0.0 4.0 0.00 0.00 0.00 65 1009.6
20260505120532 39 360 1.0 4.0 0.00 0.00 0.00 67 1009.4
20260505120110 38 360 0.0 3.0 0.00 0.00 0.00 68 1009.4
20260505115525 38 213 0.0 3.0 0.00 0.00 0.00 68 1009.4
20260505115107 38 360 0.0 2.0 0.00 0.00 0.00 69 1009.3
20260505114516 37 360 0.0 2.0 0.00 0.00 0.00 70 1009.2
20260505114058 37 360 0.0 2.0 0.00 0.00 0.00 71 1009.1
20260505113529 37 360 0.0 2.0 0.00 0.00 0.00 71 1009.0
20260505113004 37 360 0.0 2.0 0.00 0.00 0.00 72 1008.9
20260505112548 37 360 0.0 2.0 0.00 0.00 0.00 73 1008.8
20260505112110 37 360 0.0 2.0 0.00 0.00 0.00 73 1008.7
20260505111524 37 360 0.0 2.0 0.00 0.00 0.00 74 1008.6
20260505111100 37 232 0.0 2.0 0.00 0.00 0.00 74 1008.6
20260505110543 37 360 0.0 2.0 0.00 0.00 0.00 73 1008.5
20260505102020 38 360 0.0 0.0 0.00 0.00 0.00 71 1008.3
20260505101556 38 271 0.0 1.0 0.00 0.00 0.00 71 1008.2
20260505101012 38 360 0.0 1.0 0.00 0.00 0.00 71 1008.2
20260505100532 38 360 0.0 3.0 0.00 0.00 0.00 70 1008.2